This is the latest recevied weather packets stored in our database for station/object HG5CJW-10. If no packets are shown the sender has not sent any weather packets the latest 10 day(s).
| Time | Temp. | Humidity | Pressure | Rain* | Wind** | Luminosity | Snow |
|---|---|---|---|---|---|---|---|
| 1777735285 | 20.56° C | 41% | 1038.7 hPa | - | - | - | - |
| 1777734380 | 20.56° C | 41% | 1039.2 hPa | - | - | - | - |
| 1777733480 | 20.56° C | 41% | 1039.3 hPa | - | - | - | - |
| 1777732579 | 20.56° C | 41% | 1039.4 hPa | - | - | - | - |
| 1777731679 | 20.56° C | 40% | 1039.5 hPa | - | - | - | - |
| 1777730779 | 20° C | 40% | 1039.6 hPa | - | - | - | - |
| 1777729879 | 20° C | 41% | 1039.8 hPa | - | - | - | - |
| 1777728979 | 20° C | 41% | 1039.9 hPa | - | - | - | - |
| 1777727179 | 19.44° C | 41% | 1040.1 hPa | - | - | - | - |
| 1777726279 | 19.44° C | 41% | 1040.4 hPa | - | - | - | - |
| 1777725379 | 18.89° C | 41% | 1040.4 hPa | - | - | - | - |
| 1777724479 | 18.89° C | 41% | 1040.6 hPa | - | - | - | - |
| 1777723579 | 18.33° C | 41% | 1040.7 hPa | - | - | - | - |
| 1777722679 | 18.33° C | 41% | 1040.9 hPa | - | - | - | - |
| 1777721779 | 17.78° C | 42% | 1040.7 hPa | - | - | - | - |
| 1777720872 | 17.78° C | 42% | 1041.2 hPa | - | - | - | - |
| 1777719971 | 17.22° C | 42% | 1041.5 hPa | - | - | - | - |
| 1777719071 | 17.22° C | 42% | 1041.6 hPa | - | - | - | - |
| 1777718171 | 16.67° C | 43% | 1041.7 hPa | - | - | - | - |
| 1777717271 | 16.11° C | 43% | 1041.9 hPa | - | - | - | - |
| 1777716371 | 15.56° C | 43% | 1042.1 hPa | - | - | - | - |
| 1777715471 | 15.56° C | 44% | 1042.2 hPa | - | - | - | - |
| 1777713671 | 14.44° C | 45% | 1042.4 hPa | - | - | - | - |
| 1777712771 | 14.44° C | 45% | 1042.4 hPa | - | - | - | - |
| 1777711871 | 13.89° C | 46% | 1042.6 hPa | - | - | - | - |
* Rain since midnight (hover to see other rain measurements)
** Current wind speed in m/s (hover to see current wind gust speed)